Regional Weather Roundup
Issued by NWS Wilmington, NC

Home | Current Version | Previous Version | Text Only | Print | Product List | Glossary On
Versions: 1 2 3 4 5 6 7 8 9 10 11 12 13 14 15 16 17 18 19 20 21 22 23 24 25 26 27 28 29 30 31 32 33 34 35 36 37 38 39 40 41 42 43 44 45 46 47 48 49 50
679
ASUS42 KILM 131813
RWRILM
RWRILM
REGIONAL HOURLY WEATHER ROUNDUP
NATIONAL WEATHER SERVICE WILMINGTON NC
100 PM EST SAT FEB 13 2016

NOTE: "FAIR" INDICATES FEW OR NO CLOUDS BELOW 12,000 FEET WITH NO
SIGNIFICANT WEATHER AND/OR OBSTRUCTIONS TO VISIBILITY.

...............WFO WILMINGTON COUNTY WARNING AREA...............

......COASTAL NC AND SC COUNTIES......

CITY           SKY/WX    TMP DP  RH WIND       PRES   REMARKS
WILMINGTON     SUNNY     41  16  36 NW18G28   30.26F
N MYRTLE BEACH SUNNY     43  15  32 N12G21    30.27S
MYRTLE BEACH   SUNNY     45  16  31 N14G25    30.29F

......INLAND NC AND SC COUNTIES.......

CITY           SKY/WX    TMP DP  RH WIND       PRES   REMARKS
LUMBERTON      SUNNY     40  13  33 NW17G24   30.29F WCI  31
ELIZABETHTOWN  SUNNY     38  13  36 NW13      30.29F WCI  30
WHITEVILLE     SUNNY     40  15  36 N6        30.27F
FLORENCE       SUNNY     42  14  32 NW12G22   30.29F
DARLINGTON     SUNNY     43  12  28 N15       30.31F
KINGSTREE      FAIR      41  18  38 NW5G17    30.29F
HARTSVILLE     FAIR      41  10  28 NW5       30.29F
BENNETTSVILLE  FAIR      43  12  28 NW10G17   30.30F
CONWAY         FAIR      41  18  38 N7        30.28F HAZE
GEORGETOWN     FAIR      45  19  36 N7        30.27F
MARION         FAIR      41  16  36 N13       30.30F

....................REST OF NORTH CAROLINA......................

.........EASTERN NC.........

CITY           SKY/WX    TMP DP  RH WIND       PRES   REMARKS
CAPE HATTERAS  MOSUNNY   33  14  45 NW15G22   30.23F WCI  23
JACKSONVILLE   SUNNY     36  16  44 CALM      30.28F
MOREHEAD CITY  MOSUNNY   35  18  49 NW20G25   30.25S WCI  24
KENANSVILLE    SUNNY     34  14  44 N10G16    30.30F WCI  26
NEW BERN       SUNNY     34   9  35 NW18G25   30.27F WCI  23
ELIZABETH CITY SUNNY     31   7  36 NW16G30   30.24F WCI  20

.........CENTRAL NC.........

CITY           SKY/WX    TMP DP  RH WIND       PRES   REMARKS
RALEIGH DURHAM MOSUNNY   32   0  25 NW9G21    30.31F WCI  24
ROCKY MOUNT    SUNNY     33   4  29 NW17G23   30.30F WCI  22
ROANOKE RAPIDS NOT AVBL
FAYETTEVILLE   SUNNY     38   9  30 NW15G21   30.29F WCI  29
HOFFMAN        SUNNY     37   2  22 NW12G24   30.29S WCI  30

.........WESTERN NC.........

CITY           SKY/WX    TMP DP  RH WIND       PRES   REMARKS
CHARLOTTE      MOSUNNY   40   4  22 NW12      30.30F WCI  33
GREENSBORO     MOSUNNY   30  -2  25 NW17G26   30.29F WCI  18
HICKORY        NOT AVBL
BOONE          NOT AVBL
ASHEVILLE      NOT AVBL

.....................REST OF SOUTH CAROLINA.....................

.........EASTERN SC.........

CITY           SKY/WX    TMP DP  RH WIND       PRES   REMARKS
CHARLESTON     MOSUNNY   49  19  30 NW12G23   30.27S
BEAUFORT MCAS  SUNNY     50  27  40 NW10      30.28F
HILTON HEAD    SUNNY     46  30  53 N12G21    30.29F

.........CENTRAL SC.........

CITY           SKY/WX    TMP DP  RH WIND       PRES   REMARKS
COLUMBIA       SUNNY     46   7  20 NW12      30.29F
ORANGEBURG     SUNNY     46  14  27 VRB6      30.28F
SUMTER SHAW    SUNNY     45  13  27 NW12      30.26F

.........WESTERN SC.........

CITY           SKY/WX    TMP DP  RH WIND       PRES   REMARKS
GREENVILLE     NOT AVBL
ROCK HILL      SUNNY     40   7  25 NW10      30.29F WCI  33
ANDERSON       SUNNY     43  12  28 CALM      30.29F
CLEMSON        NOT AVBL
GREENWOOD      SUNNY     43  14  31 CALM      30.31F


...................COASTAL AND OFFSHORE REPORTS..................

................LOCAL PIERS AND NC RESERVE................


STATION/POSITION TIME  SKY/WX   TEMP    WIND        PRES    VSBY
                                AIR SEA DIR/SP/G
                 (UTC)          (F)     (DEG/KT/KT) (MB)    (MI)
JOHNY MRCER PIER 1700            38 51  340/ 15/ 19 1023.9R
NC RESRV MASNBRO NOT AVBL
OCEAN CREST PIER NOT AVBL
SPRINGMAID  PIER 1700            40 48  300/  9/ 14 1025.1S


................COASTAL AND OFFSHORE BUOYS................


STATION/POSITION TIME  SKY/WX   TEMP    WIND        PRES    VSBY
                                AIR SEA DIR/SP/G
                 (UTC)          (F)     (DEG/KT/KT) (MB)    (MI)
DIMNDSHOAL 41025 1750            34 71  350/ 17/ 25 1023.2S
WVE H/P(F/S)=  5/ 8 SWL H/P/D(F/S/D)=  2/240/11

CAPE LOOKOUT     NOT AVBL
ONSLOW BAY 41036 NOT AVBL
ONSLOW BAY 41064 1708            39 62              1023.6R
ONSLOW BAY 41159 1725               62                N/A
WVE H/P(F/S)=  5/ 5

5SE WRITBC 41038 1708            39 50  340/ 16/ 23 1025.0R
MASNBO INL 41110 1706               51                N/A
WVE H/P(F/S)=  2/ 4

WILM HARBR 41108 1726               51                N/A
WVE H/P(F/S)=  3/ 9

27SE WRITB 41037 1708            41 60  360/ 14/ 21 1023.2R
FRYING PAN 41013 1700            40 61  350/ 16/ 19 1024.8R
SUNST NRSH 41024 NOT AVBL
CAPRS NRSH 41029 1708            43      10/ 10/ 14 1024.8F
EDISTO     41004 1750            45 67  350/ 12/ 17 1024.1F
WVE H/P(F/S)=  4/ 6 SWL H/P/D(F/S/D)=  2/ 7



..........OFFSHORE BUOYS BEYOND 100 NM OFFSHORE...........
.....IN A TRIANGLE---HAT TO BERMUDA TO BAHAMAS TO HAT.....


STATION/POSITION TIME  SKY/WX   TEMP    WIND        PRES    VSBY
                                AIR SEA DIR/SP/G
                 (UTC)          (F)     (DEG/KT/KT) (MB)    (MI)
150E HAT   41001 1700            48 68  310/ 25/ 33 1018.0R
W BERMUDA  41048 1750            64 69  270/ 17/ 23 1015.0F
WVE H/P(F/S)= 12/11 SWL H/P/D(F/S/D)= 10/270/11

ATLANTIC S 41049 1750            72 75  200/  6/  8 1018.6F
WVE H/P(F/S)=  8/11 SWL H/P/D(F/S/D)=  8/320/11

E BAHAMAS  41046 1750            71 79  110/ 10/ 14 1018.3F
WVE H/P(F/S)=  5/ 9 SWL H/P/D(F/S/D)=  5/ 10/ 9

NE BAHAMAS 41047 1750            72 75  270/ 14/ 16 1019.0F
WVE H/P(F/S)=  4/ 9 SWL H/P/D(F/S/D)=  3/100/ 9

120E CANVRL41010 1720            65 72              1022.0F

END




USA.gov is the U.S. government's official web portal to all federal, state and local government web resources and services.